TimeCEST,TemperatureF,Dew PointF,Humidity,Sea Level PressureIn,VisibilityMPH,Wind Direction,Wind SpeedMPH,Gust SpeedMPH,PrecipitationIn,Events,Conditions,WindDirDegrees,DateUTC
12:55 AM,24.8,19.4,80,30.18,0.2,NNE,9.2,-,N/A,,Unknown,30,2012-10-09 22:55:00
1:55 AM,24.8,19.4,80,30.15,0.5,NNE,25.3,-,N/A,,Unknown,30,2012-10-09 23:55:00
2:00 AM,24,20,77,,0,NNE,25.3,,,Fog,Heavy Fog,30,2012-10-10 00:00:00
2:55 AM,24.8,19.4,80,30.15,6.2,NE,16.1,-,N/A,,Scattered Clouds,40,2012-10-10 00:55:00
3:55 AM,23.0,19.4,86,30.15,6.2,ENE,13.8,-,N/A,,Scattered Clouds,60,2012-10-10 01:55:00
4:55 AM,24.8,19.4,80,30.15,6.2,NE,9.2,-,N/A,,Partly Cloudy,40,2012-10-10 02:55:00
5:00 AM,24,19,74,,6,NE,9.2,,,,Partly Cloudy,40,2012-10-10 03:00:00
5:55 AM,24.8,19.4,80,30.12,6.2,North,16.1,-,N/A,,Partly Cloudy,360,2012-10-10 03:55:00
6:55 AM,24.8,19.4,80,30.12,6.2,NE,15.0,-,N/A,,Partly Cloudy,50,2012-10-10 04:55:00
7:55 AM,24.8,19.4,80,30.09,6.2,NNE,18.4,-,N/A,,Partly Cloudy,20,2012-10-10 05:55:00
8:00 AM,24,18,71,,25,NNE,18.4,,,,Partly Cloudy,20,2012-10-10 06:00:00
8:55 AM,24.8,17.6,74,30.12,6.2,NE,10.4,-,N/A,,Scattered Clouds,40,2012-10-10 06:55:00
10:55 AM,26.6,19.4,74,30.12,6.2,West,11.5,-,N/A,,Mostly Cloudy,270,2012-10-10 08:55:00
11:00 AM,27,20,64,,25,West,11.5,,,,Mostly Cloudy,270,2012-10-10 09:00:00
11:55 AM,28.4,21.2,74,30.12,6.2,SSW,4.6,-,N/A,,Mostly Cloudy,210,2012-10-10 09:55:00
12:55 PM,28.4,23.0,80,30.12,0.5,West,5.8,-,N/A,Fog,Light Freezing Fog,260,2012-10-10 10:55:00
1:55 PM,28.4,21.2,74,30.09,0.2,NE,5.8,-,N/A,Fog-Snow,Light Snow,40,2012-10-10 11:55:00
2:00 PM,28,22,69,,0,NE,5.8,,,Snow,Light Snow,40,2012-10-10 12:00:00
2:55 PM,26.6,23.0,86,30.09,0.1,NNE,18.4,-,N/A,Fog-Snow,Light Snow,30,2012-10-10 12:55:00
3:55 PM,24.8,21.2,86,30.09,0.1,North,25.3,-,N/A,Fog-Snow,Light Snow,10,2012-10-10 13:55:00
4:55 PM,24.8,21.2,86,30.09,0.5,NNE,27.6,-,N/A,Fog,Light Freezing Fog,20,2012-10-10 14:55:00
5:00 PM,24,20,80,,0,NNE,27.6,,,Fog,Heavy Fog,20,2012-10-10 15:00:00
6:55 PM,24.8,19.4,80,30.09,0.1,NNE,28.8,-,N/A,Fog,Light Freezing Fog,20,2012-10-10 16:55:00
7:55 PM,23.0,19.4,86,30.09,0.1,North,27.6,-,N/A,Fog,Light Freezing Fog,10,2012-10-10 17:55:00
8:00 PM,24,20,76,,0,North,27.6,,,Fog,Heavy Fog,10,2012-10-10 18:00:00
8:55 PM,23.0,19.4,86,30.12,0.1,NNE,19.6,-,N/A,Fog,Light Freezing Fog,30,2012-10-10 18:55:00
9:55 PM,23.0,19.4,86,30.12,0.5,NE,23.0,-,N/A,Fog,Light Freezing Fog,50,2012-10-10 19:55:00
10:55 PM,24.8,19.4,80,30.12,6.2,NE,17.3,-,N/A,,Partly Cloudy,40,2012-10-10 20:55:00
11:00 PM,24,18,71,,7,NE,17.3,,,Fog,Light Fog,40,2012-10-10 21:00:00
11:55 PM,24.8,14.0,64,30.12,-9999.0,NNE,18.4,-,N/A,,Clear,30,2012-10-10 21:55:00